Temp
-7 -7 -7 -7 -7 -7 -7 -7 -7 -7 -7 -7 -7 -7 -7 -6 -6 -6 -7 -7 -7 -7 -7 -6 -7 -7 -6 -6 -6 -6 -6 -6 -7 -6 -6 -6 -6 -6 -6 -6 -6 -6 -6
-7 -7 -7 -7 -7 -7 -7 -7 -7 -7 -7 -7 -7 -7 -7 -7 -7 -6 -6 -6 -7 -6 -6 -6 -6 -6 -6 -6 -6 -6 -6 -6 -7 -6 -6 -6 -6 -6 -6 -6 -6 -6 -6
-7 -7 -7 -7 -7 -7 -7 -7 -7 -7 -7 -7 -7 -7 -7 -7 -6 -6 -6 -6 -6 -6 -6 -6 -6 -6 -6 -6 -6 -6 -6 -6 -7 -7 -6 -6 -6 -6 -6 -6 -5 -6 -6
-7 -7 -7 -7 -7 -7 -7 -7 -7 -7 -7 -6 -7 -7 -7 -7 -6 -6 -6 -6 -7 -6 -6 -6 -6 -6 -6 -6 -6 -7 -7 -7 -7 -7 -7 -6 -7 -7 -6 -6 -6 -6 -6
-7 -7 -7 -7 -7 -7 -7 -8 -7 -7 -7 -7 -7 -6 -7 -7 -7 -7 -7 -7 -7 -6 -6 -6 -6 -6 -6 -6 -6 -7 -7 -7 -7 -7 -7 -6 -6 -6 -6 -6 -6 -6 -6
-8 -8 -8 -7 -7 -7 -7 -7 -7 -7 -7 -7 -7 -8 -7 -7 -7 -7 -7 -7 -7 -7 -7 -6 -6 -7 -7 -6 -6 -6 -6 -6 -7 -7 -7 -7 -6 -7 -6 -6 -7 -6 -6
-8 -8 -7 -7 -7 -7 -7 -7 -7 -7 -6 -7 -7 -7 -7 -7 -7 -7 -7 -7 -7 -7 -7 -7 -7 -7 -7 -7 -7 -7 -6 -6 -6 -7 -7 -6 -7 -7 -7 -7 -7 -6 -6
-7 -7 -7 -7 -7 -7 -7 -7 -7 -7 -7 -6 -7 -7 -7 -7 -7 -7 -7 -7 -7 -7 -7 -7 -7 -7 -7 -7 -7 -7 -7 -6 -7 -6 -6 -7 -7 -6 -7 -7 -7 -7 -7
-7 -8 -7 -7 -7 -8 -7 -8 -8 -7 -7 -7 -6 -7 -7 -7 -7 -7 -7 -7 -7 -7 -7 -7 -7 -7 -7 -7 -7 -7 -7 -7 -7 -7 -7 -7 -7 -7 -7 -7 -7 -7 -6
-8 -8 -7 -8 -7 -8 -8 -8 -8 -7 -7 -7 -7 -6 -6 -7 -7 -7 -7 -7 -7 -7 -7 -7 -7 -7 -7 -7 -7 -7 -6 -7 -7 -7 -7 -7 -7 -7 -7 -7 -7 -7 -7
-8 -8 -8 -8 -8 -8 -8 -7 -7 -7 -7 -6 -7 -7 -7 -6 -7 -7 -7 -6 -6 -7 -7 -7 -7 -7 -7 -7 -7 -7 -7 -7 -7 -7 -7 -7 -7 -7 -7 -7 -7 -7 -7
-10 -10 -9 -9 -9 -9 -9 -8 -7 -7 -7 -7 -6 -7 -7 -7 -7 -7 -7 -7 -7 -6 -6 -7 -7 -7 -7 -7 -7 -7 -7 -7 -7 -7 -7 -7 -7 -7 -7 -7 -7 -7 -7
-11 -12 -11 -11 -11 -10 -9 -8 -8 -8 -8 -7 -7 -7 -7 -7 -7 -7 -7 -7 -7 -6 -7 -7 -7 -7 -7 -7 -7 -7 -7 -7 -7 -7 -7 -6 -7 -7 -7 -7 -7 -7 -8
-11 -11 -11 -12 -11 -11 -11 -10 -10 -9 -9 -8 -8 -8 -8 -8 -8 -7 -7 -7 -7 -7 -7 -7 -7 -7 -7 -7 -7 -7 -7 -7 -7 -8 -7 -7 -7 -7 -7 -7 -8 -8 -8
-10 -10 -10 -10 -10 -10 -11 -10 -10 -10 -9 -9 -9 -10 -10 -10 -9 -9 -9 -9 -9 -8 -7 -7 -7 -7 -7 -7 -7 -7 -7 -7 -7 -8 -8 -8 -8 -8 -8 -8 -9 -9 -9
-10 -10 -10 -10 -10 -10 -10 -9 -9 -10 -9 -10 -10 -10 -10 -9 -9 -9 -9 -9 -9 -9 -8 -9 -8 -8 -8 -8 -7 -7 -7 -8 -8 -8 -8 -9 -9 -9 -9 -9 -10 -10 -10
-11 -11 -11 -10 -10 -10 -10 -10 -10 -10 -10 -10 -10 -10 -10 -10 -10 -9 -9 -9 -9 -9 -9 -9 -8 -8 -9 -9 -9 -9 -9 -9 -9 -10 -10 -10 -11 -11 -11 -12 -12 -12 -12
-12 -12 -12 -11 -11 -11 -11 -10 -10 -10 -10 -10 -10 -10 -10 -10 -10 -10 -10 -10 -10 -10 -10 -10 -9 -9 -9 -10 -10 -10 -9 -10 -10 -10 -10 -10 -10 -11 -11 -12 -13 -13 -13
-13 -13 -12 -12 -12 -11 -11 -11 -11 -11 -10 -10 -10 -10 -10 -10 -10 -10 -11 -11 -10 -10 -11 -10 -11 -11 -11 -11 -11 -11 -11 -11 -12 -12 -12 -12 -12 -12 -13 -13 -13 -13 -14
-13 -13 -13 -13 -13 -12 -12 -12 -12 -11 -11 -11 -11 -11 -11 -11 -11 -12 -12 -12 -12 -12 -12 -12 -12 -12 -12 -12 -12 -12 -12 -12 -12 -12 -13 -13 -13 -13 -13 -13 -14 -14 -14
-13 -13 -13 -13 -13 -13 -13 -12 -12 -12 -12 -12 -12 -12 -12 -12 -12 -12 -12 -12 -12 -12 -12 -12 -12 -13 -13 -13 -13 -13 -13 -13 -13 -13 -13 -13 -14 -14 -14 -14 -14 -14 -15
-13 -13 -13 -13 -13 -13 -13 -13 -13 -12 -12 -12 -12 -12 -12 -13 -13 -13 -13 -13 -13 -13 -13 -13 -13 -13 -13 -13 -13 -13 -13 -13 -13 -14 -14 -14 -14 -14 -14 -15 -15 -15 -15
-14 -14 -14 -14 -14 -13 -13 -13 -13 -13 -13 -13 -13 -13 -13 -13 -13 -13 -13 -13 -13 -13 -13 -13 -13 -13 -13 -13 -13 -13 -14 -14 -14 -14 -14 -14 -14 -15 -15 -15 -15 -15 -16
-13 -13 -13 -14 -13 -13 -13 -13 -13 -13 -13 -13 -13 -13 -13 -13 -13 -13 -13 -13 -13 -13 -13 -13 -13 -13 -14 -14 -14 -14 -14 -14 -15 -15 -15 -15 -15 -15 -16 -16 -16 -17 -17
-14 -14 -14 -14 -14 -14 -14 -13 -13 -13 -13 -13 -13 -13 -13 -13 -13 -13 -13 -13 -13 -14 -14 -14 -14 -14 -14 -14 -15 -15 -15 -15 -15 -15 -16 -16 -16 -16 -17 -17 -17 -18 -18
-14 -14 -14 -14 -14 -14 -13 -13 -13 -13 -13 -13 -13 -13 -13 -13 -13 -13 -13 -13 -13 -13 -14 -14 -14 -14 -15 -15 -15 -15 -15 -15 -16 -16 -17 -17 -17 -17 -18 -18 -18 -18 -19
Height
5886 5889 5891 5893 5894 5896 5900 5903 5907 5909 5911 5912 5915 5918 5922 5925 5927 5929 5930 5931 5933 5935 5936 5937 5938 5938 5938 5937 5937 5937 5937 5936 5935 5934 5933 5934 5934 5933 5933 5932 5932 5931 5930
5880 5884 5887 5889 5892 5894 5896 5900 5903 5906 5908 5910 5912 5914 5917 5919 5921 5924 5927 5928 5930 5931 5932 5933 5933 5934 5934 5934 5934 5933 5932 5932 5931 5930 5930 5931 5930 5930 5930 5929 5929 5927 5925
5874 5879 5883 5886 5889 5891 5892 5895 5899 5902 5905 5907 5909 5911 5913 5915 5918 5921 5923 5925 5925 5926 5927 5928 5929 5930 5930 5930 5930 5929 5928 5927 5927 5927 5927 5926 5926 5925 5925 5924 5923 5922 5920
5870 5875 5878 5882 5884 5887 5889 5890 5894 5898 5901 5905 5907 5908 5910 5911 5914 5916 5918 5919 5920 5921 5922 5923 5924 5925 5925 5925 5925 5924 5924 5923 5923 5923 5923 5922 5922 5920 5920 5919 5917 5915 5913
5866 5870 5873 5875 5879 5881 5885 5887 5889 5894 5897 5899 5902 5905 5907 5908 5910 5912 5912 5914 5915 5916 5917 5919 5919 5919 5920 5920 5919 5919 5919 5918 5918 5917 5917 5917 5916 5915 5914 5912 5910 5909 5907
5859 5863 5866 5870 5873 5876 5879 5882 5884 5887 5891 5893 5896 5897 5900 5902 5904 5906 5907 5908 5909 5910 5911 5912 5913 5913 5913 5914 5914 5914 5914 5914 5912 5912 5911 5910 5910 5909 5907 5906 5904 5902 5898
5851 5855 5859 5863 5866 5869 5873 5876 5879 5881 5883 5887 5889 5891 5894 5895 5897 5898 5899 5901 5903 5904 5904 5904 5905 5906 5907 5907 5907 5907 5906 5905 5905 5905 5904 5903 5902 5901 5900 5899 5896 5894 5891
5843 5847 5850 5854 5857 5861 5865 5868 5871 5874 5877 5879 5881 5884 5887 5889 5891 5891 5892 5894 5896 5896 5896 5896 5897 5897 5899 5899 5898 5899 5898 5899 5897 5896 5897 5895 5893 5893 5892 5891 5888 5886 5883
5835 5838 5841 5845 5849 5853 5856 5860 5862 5864 5867 5870 5873 5875 5877 5880 5883 5884 5884 5885 5887 5887 5886 5888 5889 5888 5891 5889 5889 5888 5888 5889 5886 5887 5887 5886 5884 5883 5882 5880 5879 5876 5874
5826 5829 5833 5837 5838 5843 5846 5849 5852 5855 5857 5860 5862 5865 5868 5870 5872 5873 5874 5875 5877 5877 5877 5880 5879 5879 5878 5880 5880 5880 5880 5880 5878 5877 5875 5872 5872 5871 5870 5869 5867 5865 5862
5819 5822 5825 5828 5831 5835 5837 5839 5839 5842 5844 5848 5851 5853 5856 5858 5860 5861 5862 5863 5865 5866 5868 5871 5870 5870 5870 5871 5870 5870 5869 5870 5868 5867 5866 5864 5863 5861 5859 5857 5855 5852 5849
5814 5814 5815 5818 5821 5825 5828 5830 5831 5832 5832 5835 5836 5840 5843 5845 5848 5849 5850 5852 5853 5855 5857 5859 5860 5860 5860 5860 5860 5859 5858 5857 5857 5856 5855 5852 5851 5849 5847 5845 5842 5839 5836
5809 5809 5810 5812 5815 5818 5821 5820 5821 5823 5824 5825 5827 5828 5830 5831 5834 5836 5837 5839 5843 5843 5845 5845 5847 5847 5847 5847 5848 5846 5845 5844 5843 5843 5841 5839 5838 5836 5834 5831 5828 5824 5821
5805 5807 5809 5811 5813 5814 5815 5815 5816 5816 5817 5819 5821 5822 5822 5822 5823 5825 5826 5828 5830 5832 5833 5834 5834 5834 5835 5834 5834 5833 5832 5830 5830 5829 5828 5826 5825 5821 5819 5816 5813 5810 5805
5801 5803 5804 5806 5809 5809 5811 5812 5813 5812 5813 5813 5814 5814 5816 5818 5819 5820 5821 5820 5820 5821 5822 5822 5822 5822 5821 5821 5821 5820 5819 5817 5814 5815 5814 5812 5808 5806 5804 5801 5799 5797 5794
5795 5796 5798 5799 5800 5802 5804 5806 5807 5806 5807 5809 5811 5811 5812 5813 5814 5815 5815 5814 5814 5814 5813 5812 5811 5810 5809 5808 5807 5805 5804 5803 5802 5801 5801 5796 5792 5790 5788 5787 5785 5785 5781
5788 5790 5792 5792 5794 5795 5796 5797 5799 5799 5801 5803 5804 5804 5804 5806 5807 5807 5808 5808 5807 5805 5804 5802 5801 5800 5798 5798 5797 5795 5794 5793 5791 5789 5788 5785 5783 5782 5779 5777 5775 5772 5770
5780 5782 5784 5785 5787 5789 5789 5790 5792 5793 5794 5795 5796 5797 5797 5798 5799 5799 5798 5798 5797 5795 5794 5793 5792 5791 5791 5790 5788 5787 5786 5784 5782 5779 5777 5775 5772 5770 5767 5765 5763 5761 5758
5774 5774 5776 5777 5780 5782 5783 5784 5786 5787 5787 5788 5788 5789 5789 5789 5789 5789 5789 5789 5788 5787 5787 5785 5785 5783 5782 5780 5779 5777 5776 5774 5772 5770 5768 5766 5763 5761 5758 5756 5754 5751 5749
5767 5768 5769 5771 5773 5775 5777 5778 5779 5780 5781 5781 5781 5781 5781 5781 5781 5780 5779 5779 5779 5779 5778 5777 5775 5774 5772 5771 5770 5768 5767 5765 5763 5761 5759 5757 5755 5752 5750 5748 5745 5742 5739
5761 5762 5763 5765 5767 5769 5770 5772 5773 5774 5775 5775 5775 5776 5776 5775 5775 5775 5774 5773 5772 5772 5771 5770 5769 5767 5766 5765 5763 5760 5759 5757 5755 5753 5752 5749 5747 5744 5741 5739 5736 5731 5728
5758 5759 5760 5761 5762 5763 5765 5766 5767 5768 5769 5770 5770 5770 5770 5770 5769 5769 5769 5768 5767 5766 5765 5764 5763 5762 5760 5758 5756 5754 5752 5750 5747 5745 5742 5739 5737 5734 5731 5728 5724 5720 5717
5756 5757 5758 5759 5760 5761 5762 5763 5764 5764 5765 5765 5765 5765 5765 5765 5764 5764 5763 5762 5761 5760 5758 5757 5755 5754 5752 5750 5748 5746 5744 5741 5738 5735 5733 5730 5727 5724 5720 5716 5712 5708 5704
5757 5757 5757 5758 5758 5759 5759 5760 5760 5760 5760 5760 5759 5759 5759 5758 5757 5757 5756 5755 5753 5752 5751 5749 5747 5746 5743 5741 5738 5735 5732 5730 5727 5725 5721 5718 5715 5711 5708 5704 5700 5696 5694
5758 5758 5758 5758 5758 5758 5757 5756 5756 5755 5755 5755 5755 5754 5753 5752 5751 5749 5748 5747 5745 5744 5742 5740 5738 5736 5733 5730 5727 5724 5721 5719 5715 5713 5710 5707 5703 5700 5696 5693 5690 5687 5684
5755 5755 5754 5754 5753 5753 5752 5752 5751 5751 5750 5749 5749 5747 5746 5744 5743 5741 5740 5738 5736 5735 5733 5731 5728 5726 5723 5720 5717 5713 5711 5708 5705 5701 5698 5695 5692 5689 5686 5683 5680 5677 5674
Wind_Speed
24 23 22 22 22 20 20 21 21 21 21 24 25 25 23 22 23 22 19 18 19 17 17 16 17 16 16 14 15 15 15 14 14 13 13 10 9 8 10 11 11 12 15
28 26 26 24 24 22 23 22 19 19 19 22 24 25 25 25 26 25 22 21 20 22 19 19 20 19 18 16 17 18 17 17 15 15 15 13 13 13 13 15 15 15 16
30 28 27 25 25 25 26 25 22 21 20 20 21 24 24 25 24 24 24 23 23 23 21 21 22 21 21 19 18 20 19 17 15 15 15 17 16 17 19 19 19 19 19
28 29 27 28 27 26 26 24 23 23 22 21 21 22 23 23 23 23 24 24 25 24 23 23 23 22 22 22 22 22 19 18 17 17 17 19 20 22 23 23 23 23 24
27 28 29 29 31 31 29 28 27 25 25 24 22 22 23 23 24 24 25 25 24 24 24 25 25 25 25 25 25 23 21 21 21 22 22 23 24 26 26 27 27 26 28
30 31 31 32 31 33 34 34 31 30 30 29 30 29 28 27 27 26 27 25 25 25 26 27 27 28 28 28 26 25 24 24 25 24 25 26 27 28 29 29 30 31 34
28 28 33 32 32 35 37 38 36 35 34 34 33 33 33 32 30 31 30 29 29 29 30 31 31 30 30 28 28 27 28 28 27 29 28 30 29 31 32 33 35 33 33
35 36 34 36 36 37 39 39 40 40 40 39 38 36 36 37 35 34 34 33 32 33 32 33 33 33 32 32 31 30 31 29 31 33 32 33 33 34 34 34 34 37 39
44 38 37 39 37 38 38 45 40 41 42 42 42 42 41 41 40 41 41 39 37 36 37 36 37 37 33 35 35 35 35 34 35 37 39 37 33 37 36 38 40 42 43
45 38 44 41 41 41 41 40 41 41 42 41 44 43 47 45 45 44 44 42 40 39 40 38 40 38 40 38 39 39 39 38 38 42 41 41 41 40 42 47 45 42 41
52 50 44 42 45 46 40 39 44 47 46 45 45 47 55 49 48 49 46 45 43 41 42 40 43 43 42 43 41 42 42 40 42 44 44 44 46 48 46 49 44 45 50
16 24 34 35 30 29 31 33 35 35 37 44 51 53 58 54 53 50 50 49 44 45 42 42 46 46 45 45 45 46 47 46 44 42 46 47 49 52 52 52 55 59 58
16 15 15 17 20 20 26 35 26 24 27 26 28 32 32 38 41 48 50 49 50 47 48 46 42 45 46 49 47 50 50 51 54 49 48 49 60 56 56 57 59 61 61
26 26 24 26 27 25 26 25 24 21 21 24 30 32 31 26 32 36 38 39 42 49 48 48 50 46 47 49 50 50 52 59 60 57 57 58 61 58 60 60 59 59 53
29 32 32 33 33 31 31 32 31 25 24 24 27 23 23 25 30 30 30 29 31 36 42 47 44 47 47 52 55 56 57 57 55 57 57 58 59 65 64 58 47 40 43
30 29 30 33 35 34 34 36 35 30 30 29 29 27 27 29 31 31 32 32 31 32 29 32 34 38 45 50 48 45 50 49 49 52 52 49 44 49 48 45 37 38 40
30 32 29 31 31 32 33 35 34 31 32 32 32 31 31 32 32 33 32 33 34 34 31 32 32 33 34 34 34 36 38 38 38 39 39 35 34 34 34 36 38 40 42
28 29 28 30 29 30 29 29 31 32 33 32 34 34 33 34 34 35 34 34 31 30 29 30 32 32 33 34 33 33 37 39 40 41 42 42 41 40 39 39 38 39 40
19 21 23 23 25 26 24 25 25 26 26 26 27 28 28 29 30 30 30 31 32 33 33 33 33 32 33 34 35 35 35 35 34 35 36 36 36 36 36 36 36 36 35
19 20 21 21 21 20 19 19 19 19 19 18 18 19 20 21 22 23 24 25 26 26 27 28 29 28 29 29 29 30 30 31 30 30 30 29 28 28 29 31 33 34 36
15 18 19 19 19 19 19 19 18 19 19 19 20 20 21 22 22 23 23 24 23 23 21 21 20 21 22 23 24 25 26 27 28 29 30 31 31 33 34 36 38 39 41
11 11 12 13 13 14 15 15 16 16 16 16 16 15 15 14 15 15 17 18 19 20 21 23 24 25 27 28 28 29 30 30 32 33 34 35 36 37 38 40 41 43 44
3 3 4 3 3 3 4 5 7 8 10 11 13 14 16 17 18 19 20 21 22 23 23 24 26 27 29 31 32 32 33 34 35 35 36 37 38 40 41 42 42 42 41
1 1 1 0 1 3 6 8 9 10 12 13 14 15 17 19 20 21 22 23 24 24 26 27 29 29 30 30 31 32 33 35 36 37 38 39 38 38 38 38 37 37 36
7 7 7 7 8 9 10 10 12 13 15 16 17 18 20 22 23 24 24 26 27 28 28 28 30 32 33 33 32 33 34 36 37 38 38 37 36 38 37 33 33 34 35
12 12 13 14 14 15 15 16 16 18 19 21 22 24 25 26 26 27 28 29 29 28 28 29 31 33 34 35 37 38 39 39 39 37 36 37 38 35 31 30 31 32 34
Wind_Direction
228 221 220 222 214 210 213 218 219 212 208 213 217 219 223 221 222 229 225 222 229 225 237 247 252 253 256 263 266 269 277 282 279 271 268 267 268 272 272 276 279 280 285
217 227 221 222 224 214 217 223 221 222 218 214 218 220 224 224 226 228 226 225 236 237 241 248 252 252 255 254 261 269 279 284 276 269 266 271 276 273 278 285 286 281 281
213 220 225 221 225 222 220 222 226 223 222 222 220 223 224 225 225 229 231 232 237 238 243 247 248 252 253 254 258 267 272 270 269 268 269 273 276 279 284 284 283 284 283
214 219 225 227 222 225 227 225 222 226 224 224 225 225 224 225 224 226 229 232 237 243 246 247 248 246 251 257 261 263 259 261 262 265 268 270 273 278 279 281 283 286 287
220 222 225 226 228 224 228 230 225 224 222 223 221 225 229 227 229 231 233 237 241 245 248 248 246 244 249 256 258 259 257 259 260 264 268 268 269 272 276 278 282 285 289
236 237 229 230 227 231 231 230 230 227 227 229 229 229 226 226 228 232 236 238 241 244 246 247 248 252 254 254 255 257 260 263 264 264 267 266 268 270 275 278 282 286 289
233 236 235 232 232 234 235 235 234 234 234 232 233 234 236 235 235 236 236 237 241 242 245 247 250 251 253 255 257 258 260 259 261 265 266 268 268 270 272 277 280 281 285
227 230 240 238 244 238 241 235 237 238 239 239 238 236 237 240 240 241 242 242 242 246 249 252 253 254 254 257 255 257 261 262 265 264 266 269 270 273 277 277 281 281 284
230 227 234 239 242 242 246 243 245 243 243 246 244 242 240 240 243 246 246 247 248 248 250 251 251 253 257 258 259 260 262 264 265 269 270 267 272 275 276 281 282 282 285
236 230 229 237 244 241 247 244 246 244 247 252 249 248 248 246 245 246 249 251 251 251 252 255 259 258 259 256 259 259 263 266 268 272 276 279 282 283 282 285 283 283 287
234 236 231 232 244 249 247 249 255 247 250 252 250 251 248 247 248 248 248 250 252 252 255 256 259 262 264 267 262 260 263 265 269 273 275 277 279 280 281 283 280 282 288
231 221 227 225 224 229 235 237 250 260 255 247 254 252 242 251 245 248 248 250 253 255 254 256 257 257 262 261 262 262 264 265 265 272 278 279 279 280 280 282 282 288 287
250 257 264 253 237 240 248 240 243 242 248 245 250 250 257 245 247 253 251 247 251 253 256 263 272 260 266 265 266 270 265 262 266 266 269 267 276 279 280 280 283 283 292
254 257 258 261 265 266 265 267 263 266 260 242 250 243 250 250 256 263 249 252 252 255 261 266 268 265 264 267 269 272 275 267 266 263 266 270 275 279 281 279 283 286 277
249 249 250 251 247 250 256 260 262 264 263 262 266 274 262 263 265 269 269 270 272 271 271 267 265 265 265 268 270 271 277 282 272 265 268 277 280 277 279 278 278 277 279
250 251 254 254 252 253 249 251 255 257 261 264 264 266 268 269 269 269 268 270 275 273 280 277 277 277 270 269 274 277 276 276 274 274 278 275 269 274 274 273 265 267 272
257 253 254 257 256 255 256 260 261 260 260 262 265 268 270 273 274 274 276 278 279 283 285 288 290 289 290 289 287 283 278 276 276 277 276 277 282 288 290 289 287 284 286
262 262 258 256 258 259 260 260 261 261 261 263 266 269 270 272 274 276 279 281 283 285 286 285 286 286 287 287 290 290 291 292 291 293 296 298 298 298 297 295 292 288 287
251 253 256 254 254 257 259 262 263 264 265 266 267 269 271 272 273 273 273 273 273 274 276 279 280 281 282 285 287 290 291 291 291 292 292 292 292 292 291 290 289 290 290
246 244 245 245 245 246 249 254 256 257 258 262 267 273 276 278 278 279 280 281 282 281 281 282 283 285 287 290 291 291 292 293 294 295 295 297 299 300 300 300 298 297 296
255 255 253 244 240 242 242 244 249 254 258 263 268 270 273 277 279 280 281 281 282 285 286 288 290 293 293 294 295 296 297 297 297 297 297 297 296 296 296 295 295 296 296
253 256 256 251 248 249 252 256 260 263 267 269 271 275 276 278 279 280 283 284 285 286 288 290 290 291 292 292 292 292 293 293 292 291 291 291 292 293 294 295 294 295 295
105 131 145 160 180 207 226 246 254 262 270 276 280 283 284 284 285 285 285 286 287 288 289 291 291 293 293 293 293 292 292 291 290 290 290 291 292 292 292 292 293 294 295
83 106 109 180 267 272 267 265 266 267 270 275 281 286 289 290 288 287 286 286 286 287 289 290 290 290 290 289 290 290 291 291 290 290 291 292 293 294 294 294 294 293 293
266 264 268 276 283 286 280 275 270 270 273 276 281 283 285 284 283 282 283 284 285 286 290 293 295 296 295 293 291 292 292 293 295 295 296 295 295 295 296 294 292 293 293
281 283 286 288 290 290 286 283 280 278 276 275 275 277 281 282 281 282 284 284 284 282 287 293 296 296 293 293 295 296 298 296 296 296 296 295 294 295 293 292 292 293 295